User: anonymous   Login
Location: Barnston
(51.8500°N, 0.4000°E)
Time: 17:27:49
(UTC+00:00)
Language:

Cosmos 2266 Rocket - Orbit

View from above orbital plane
View from above orbital plane
View from above satellite
View from above satellite

Ground track
Ground track

The orbit data is extracted from the following two-line orbital elements,

1 22889U 93070B   24061.72112163  .00000123  00000-0  10593-3 0  9991
2 22889  82.9440 294.9914 0049217 201.0806 158.8325 13.78081902524727
Epoch (UTC): 01 March 2024 17:18:24
Eccentricity: 0.0049217
inclination: 82.9440°
perigee height: 934 km
apogee height: 1007 km
right ascension of ascending node: 294.9914°
argument of perigee: 201.0806°
revolutions per day: 13.78081902
mean anomaly at epoch: 158.8325°
orbit number at epoch: 52472

The dashed part of the orbit path shows where the satellite is in the earth's shadow,  

DLR